Time,TemperatureF,DewpointF,PressureIn,WindDirection,WindDirectionDegrees,WindSpeedMPH,WindSpeedGustMPH,Humidity,HourlyPrecipIn,Conditions,Clouds,dailyrainin,SoftwareType,DateUTC
2013-10-05 00:00:00,63.1,62.2,30.01,West,259,0.0,0.0,97,0.00,,---,0.00,VWS V14.01,2013-10-05 04:00:00,
2013-10-05 00:01:00,63.1,62.2,30.01,West,259,0.0,0.0,97,0.00,,---,0.00,VWS V14.01,2013-10-05 04:01:00,
2013-10-05 00:06:00,63.3,62.7,30.01,West,259,0.0,0.0,98,0.00,,---,0.00,VWS V14.01,2013-10-05 04:06:00,
2013-10-05 00:11:00,63.4,62.8,30.01,West,259,0.0,0.0,98,0.00,,---,0.00,VWS V14.01,2013-10-05 04:11:00,
2013-10-05 00:16:00,63.2,62.3,30.02,West,259,0.0,0.0,97,0.00,,---,0.00,VWS V14.01,2013-10-05 04:16:00,
2013-10-05 00:21:00,63.0,62.1,30.02,West,259,0.0,0.0,97,0.00,,---,0.00,VWS V14.01,2013-10-05 04:21:00,
2013-10-05 00:26:00,63.0,62.4,30.01,West,259,0.0,0.0,98,0.00,,---,0.00,VWS V14.01,2013-10-05 04:26:00,
2013-10-05 00:30:00,62.9,62.3,30.01,West,259,0.0,0.0,98,0.00,,---,0.00,VWS V14.01,2013-10-05 04:30:00,
2013-10-05 00:31:00,63.0,62.4,30.01,West,259,0.0,0.0,98,0.00,,---,0.00,VWS V14.01,2013-10-05 04:31:00,
2013-10-05 00:36:00,62.9,62.3,30.01,West,259,0.0,0.0,98,0.00,,---,0.00,VWS V14.01,2013-10-05 04:36:00,
2013-10-05 00:41:00,62.7,62.1,30.01,West,259,0.0,0.0,98,0.00,,---,0.00,VWS V14.01,2013-10-05 04:41:00,
2013-10-05 00:46:00,62.7,62.1,30.01,West,259,0.0,0.0,98,0.00,,---,0.00,VWS V14.01,2013-10-05 04:46:00,
2013-10-05 00:51:00,62.6,61.7,30.01,West,259,0.0,0.0,97,0.00,,---,0.00,VWS V14.01,2013-10-05 04:51:00,
2013-10-05 00:56:00,62.5,61.6,30.00,West,259,0.0,0.0,97,0.00,,---,0.00,VWS V14.01,2013-10-05 04:56:00,
2013-10-05 01:00:00,62.5,61.6,30.01,West,259,0.0,0.0,97,0.00,,---,0.00,VWS V14.01,2013-10-05 05:00:00,
2013-10-05 01:01:00,62.5,61.6,30.01,West,259,0.0,0.0,97,0.00,,---,0.00,VWS V14.01,2013-10-05 05:01:00,
2013-10-05 01:06:00,62.4,61.5,30.00,West,259,0.0,0.0,97,0.00,,---,0.00,VWS V14.01,2013-10-05 05:06:00,
2013-10-05 01:11:00,62.3,61.7,30.01,West,259,0.0,0.0,98,0.00,,---,0.00,VWS V14.01,2013-10-05 05:11:00,
2013-10-05 01:16:00,62.3,61.7,30.01,West,259,0.0,0.0,98,0.00,,---,0.00,VWS V14.01,2013-10-05 05:16:00,
2013-10-05 01:21:00,62.2,61.6,30.01,West,259,0.0,0.0,98,0.00,,---,0.00,VWS V14.01,2013-10-05 05:21:00,
2013-10-05 01:26:00,62.2,61.6,30.01,West,259,0.0,0.0,98,0.00,,---,0.00,VWS V14.01,2013-10-05 05:26:00,
2013-10-05 01:30:00,62.1,61.5,30.01,West,259,0.0,0.0,98,0.00,,---,0.00,VWS V14.01,2013-10-05 05:30:00,
2013-10-05 01:31:00,62.1,61.5,30.01,West,259,0.0,0.0,98,0.00,,---,0.00,VWS V14.01,2013-10-05 05:31:00,
2013-10-05 01:36:00,62.0,61.1,30.01,West,259,0.0,0.0,97,0.00,,---,0.00,VWS V14.01,2013-10-05 05:36:00,
2013-10-05 01:41:00,62.1,61.5,30.01,West,259,0.0,0.0,98,0.00,,---,0.00,VWS V14.01,2013-10-05 05:41:00,
2013-10-05 01:46:00,62.0,61.4,30.00,West,259,0.0,0.0,98,0.00,,---,0.00,VWS V14.01,2013-10-05 05:46:00,
2013-10-05 01:51:00,62.0,61.1,30.01,West,259,0.0,0.0,97,0.00,,---,0.00,VWS V14.01,2013-10-05 05:51:00,
2013-10-05 01:56:00,61.9,61.3,30.01,West,259,0.0,0.0,98,0.00,,---,0.00,VWS V14.01,2013-10-05 05:56:00,
2013-10-05 02:00:00,61.9,61.3,30.01,West,259,0.0,0.0,98,0.00,,---,0.00,VWS V14.01,2013-10-05 06:00:00,
2013-10-05 02:01:00,61.9,61.3,30.01,West,259,0.0,0.0,98,0.00,,---,0.00,VWS V14.01,2013-10-05 06:01:00,
2013-10-05 02:06:00,62.1,61.5,30.01,West,259,0.0,0.0,98,0.00,,---,0.00,VWS V14.01,2013-10-05 06:06:00,
2013-10-05 02:11:00,61.8,61.2,30.01,West,259,0.0,0.0,98,0.00,,---,0.00,VWS V14.01,2013-10-05 06:11:00,
2013-10-05 02:17:00,61.6,61.0,30.01,West,259,0.0,0.0,98,0.00,,---,0.00,VWS V14.01,2013-10-05 06:17:00,
2013-10-05 02:22:00,61.7,61.1,30.01,West,259,0.0,0.0,98,0.00,,---,0.00,VWS V14.01,2013-10-05 06:22:00,
2013-10-05 02:27:00,61.6,61.0,30.01,West,259,0.0,0.0,98,0.00,,---,0.00,VWS V14.01,2013-10-05 06:27:00,
2013-10-05 02:30:00,61.6,61.0,30.01,West,259,0.0,0.0,98,0.00,,---,0.00,VWS V14.01,2013-10-05 06:30:00,
2013-10-05 02:31:00,61.5,60.9,30.01,West,259,0.0,0.0,98,0.00,,---,0.00,VWS V14.01,2013-10-05 06:31:00,
2013-10-05 02:36:00,61.4,60.8,30.00,West,259,0.0,0.0,98,0.00,,---,0.00,VWS V14.01,2013-10-05 06:36:00,
2013-10-05 02:41:00,61.3,60.7,30.00,West,259,0.0,0.0,98,0.00,,---,0.00,VWS V14.01,2013-10-05 06:41:00,
2013-10-05 02:46:00,61.3,60.7,30.00,West,259,0.0,0.0,98,0.00,,---,0.00,VWS V14.01,2013-10-05 06:46:00,
2013-10-05 02:51:00,61.2,60.6,30.00,West,259,0.0,0.0,98,0.00,,---,0.00,VWS V14.01,2013-10-05 06:51:00,
2013-10-05 02:56:00,61.2,60.6,30.00,West,259,0.0,0.0,98,0.00,,---,0.00,VWS V14.01,2013-10-05 06:56:00,
2013-10-05 03:00:00,61.2,60.6,30.00,West,259,0.0,0.0,98,0.00,,---,0.00,VWS V14.01,2013-10-05 07:00:00,
2013-10-05 03:01:00,61.1,60.5,30.00,West,259,0.0,0.0,98,0.00,,---,0.00,VWS V14.01,2013-10-05 07:01:00,
2013-10-05 03:06:00,61.1,60.5,30.00,West,259,0.0,0.0,98,0.00,,---,0.00,VWS V14.01,2013-10-05 07:06:00,
2013-10-05 03:11:00,61.0,60.4,30.00,West,259,0.0,0.0,98,0.00,,---,0.00,VWS V14.01,2013-10-05 07:11:00,
2013-10-05 03:16:00,60.8,60.2,30.00,West,259,0.0,0.0,98,0.00,,---,0.00,VWS V14.01,2013-10-05 07:16:00,
2013-10-05 03:21:00,61.0,60.4,30.00,West,259,0.0,0.0,98,0.00,,---,0.00,VWS V14.01,2013-10-05 07:21:00,
2013-10-05 03:26:00,60.9,60.3,30.00,West,259,0.0,0.0,98,0.00,,---,0.00,VWS V14.01,2013-10-05 07:26:00,
2013-10-05 03:30:00,60.8,60.2,30.00,West,259,0.0,0.0,98,0.00,,---,0.00,VWS V14.01,2013-10-05 07:30:00,
2013-10-05 03:31:00,60.8,60.2,30.00,West,259,0.0,0.0,98,0.00,,---,0.00,VWS V14.01,2013-10-05 07:31:00,
2013-10-05 03:36:00,60.8,60.2,30.00,West,259,0.0,0.0,98,0.00,,---,0.00,VWS V14.01,2013-10-05 07:36:00,
2013-10-05 03:41:00,60.9,60.3,29.99,West,259,0.0,0.0,98,0.00,,---,0.00,VWS V14.01,2013-10-05 07:41:00,
2013-10-05 03:46:00,60.7,60.1,30.00,West,259,0.0,0.0,98,0.00,,---,0.00,VWS V14.01,2013-10-05 07:46:00,
2013-10-05 03:51:00,60.7,60.1,30.00,West,259,0.0,0.0,98,0.00,,---,0.00,VWS V14.01,2013-10-05 07:51:00,
2013-10-05 03:56:00,60.7,60.1,30.00,West,259,0.0,0.0,98,0.00,,---,0.00,VWS V14.01,2013-10-05 07:56:00,
2013-10-05 04:00:00,60.7,60.1,30.00,West,259,0.0,0.0,98,0.00,,---,0.00,VWS V14.01,2013-10-05 08:00:00,
2013-10-05 04:01:00,60.6,60.0,30.00,West,259,0.0,0.0,98,0.00,,---,0.00,VWS V14.01,2013-10-05 08:01:00,
2013-10-05 04:06:00,60.5,59.9,30.00,West,259,0.0,0.0,98,0.00,,---,0.00,VWS V14.01,2013-10-05 08:06:00,
2013-10-05 04:11:00,60.4,59.8,30.00,West,259,0.0,0.0,98,0.00,,---,0.00,VWS V14.01,2013-10-05 08:11:00,
2013-10-05 04:16:00,60.4,59.8,30.00,West,259,0.0,0.0,98,0.00,,---,0.00,VWS V14.01,2013-10-05 08:16:00,
2013-10-05 04:21:00,60.4,59.8,30.00,West,259,0.0,0.0,98,0.00,,---,0.00,VWS V14.01,2013-10-05 08:21:00,
2013-10-05 04:26:00,60.3,59.7,30.00,West,259,0.0,0.0,98,0.00,,---,0.00,VWS V14.01,2013-10-05 08:26:00,
2013-10-05 04:30:00,60.3,59.7,30.00,West,259,0.0,0.0,98,0.00,,---,0.00,VWS V14.01,2013-10-05 08:30:00,
2013-10-05 04:31:00,60.3,59.7,30.00,West,259,0.0,0.0,98,0.00,,---,0.00,VWS V14.01,2013-10-05 08:31:00,
2013-10-05 04:36:00,60.3,59.7,30.00,West,259,0.0,0.0,98,0.00,,---,0.00,VWS V14.01,2013-10-05 08:36:00,
2013-10-05 04:41:00,60.2,59.6,30.00,West,259,0.0,0.0,98,0.00,,---,0.00,VWS V14.01,2013-10-05 08:41:00,
2013-10-05 04:46:00,60.1,59.5,30.00,West,259,0.0,0.0,98,0.00,,---,0.00,VWS V14.01,2013-10-05 08:46:00,
2013-10-05 04:51:00,59.9,59.3,30.00,West,259,0.0,0.0,98,0.00,,---,0.00,VWS V14.01,2013-10-05 08:51:00,
2013-10-05 04:56:00,59.9,59.3,30.00,West,259,0.0,0.0,98,0.00,,---,0.00,VWS V14.01,2013-10-05 08:56:00,
2013-10-05 05:00:00,60.0,59.4,30.00,West,259,0.0,0.0,98,0.00,,---,0.00,VWS V14.01,2013-10-05 09:00:00,
2013-10-05 05:01:00,60.0,59.4,30.00,West,259,0.0,0.0,98,0.00,,---,0.00,VWS V14.01,2013-10-05 09:01:00,
2013-10-05 05:06:00,60.0,59.4,30.00,West,259,0.0,0.0,98,0.00,,---,0.00,VWS V14.01,2013-10-05 09:06:00,
2013-10-05 05:11:00,60.0,59.4,30.00,West,259,0.0,0.0,98,0.00,,---,0.00,VWS V14.01,2013-10-05 09:11:00,
2013-10-05 05:16:00,59.9,59.3,30.00,West,259,0.0,0.0,98,0.00,,---,0.00,VWS V14.01,2013-10-05 09:16:00,
2013-10-05 05:21:00,59.9,59.3,30.00,West,259,0.0,0.0,98,0.00,,---,0.00,VWS V14.01,2013-10-05 09:21:00,
2013-10-05 05:26:00,59.9,59.3,30.00,West,259,0.0,0.0,98,0.00,,---,0.00,VWS V14.01,2013-10-05 09:26:00,
2013-10-05 05:30:00,59.8,59.2,30.00,West,259,0.0,0.0,98,0.00,,---,0.00,VWS V14.01,2013-10-05 09:30:00,
2013-10-05 05:31:00,59.8,59.2,30.00,West,259,0.0,0.0,98,0.00,,---,0.00,VWS V14.01,2013-10-05 09:31:00,
2013-10-05 05:36:00,60.1,59.5,30.01,West,259,0.0,0.0,98,0.00,,---,0.00,VWS V14.01,2013-10-05 09:36:00,
2013-10-05 05:41:00,59.7,59.1,30.01,West,259,0.0,0.0,98,0.00,,---,0.00,VWS V14.01,2013-10-05 09:41:00,
2013-10-05 05:46:00,59.7,59.1,30.01,West,259,0.0,0.0,98,0.00,,---,0.00,VWS V14.01,2013-10-05 09:46:00,
2013-10-05 05:51:00,59.8,59.2,30.01,West,259,0.0,0.0,98,0.00,,---,0.00,VWS V14.01,2013-10-05 09:51:00,
2013-10-05 05:56:00,59.8,59.2,30.01,West,259,0.0,0.0,98,0.00,,---,0.00,VWS V14.01,2013-10-05 09:56:00,
2013-10-05 06:00:00,59.7,59.1,30.01,West,259,0.0,0.0,98,0.00,,---,0.00,VWS V14.01,2013-10-05 10:00:00,
2013-10-05 06:01:00,59.7,59.1,30.01,West,259,0.0,0.0,98,0.00,,---,0.00,VWS V14.01,2013-10-05 10:01:00,
2013-10-05 06:06:00,59.7,59.1,30.01,West,259,0.0,0.0,98,0.00,,---,0.00,VWS V14.01,2013-10-05 10:06:00,
2013-10-05 06:11:00,59.5,58.9,30.01,West,259,0.0,0.0,98,0.00,,---,0.00,VWS V14.01,2013-10-05 10:11:00,
2013-10-05 06:16:00,59.5,58.9,30.01,West,259,0.0,0.0,98,0.00,,---,0.00,VWS V14.01,2013-10-05 10:16:00,
2013-10-05 06:21:00,59.6,59.0,30.02,West,259,0.0,0.0,98,0.00,,---,0.00,VWS V14.01,2013-10-05 10:21:00,
2013-10-05 06:26:00,59.4,58.8,30.02,West,259,0.0,0.0,98,0.00,,---,0.00,VWS V14.01,2013-10-05 10:26:00,
2013-10-05 06:30:00,59.6,59.0,30.02,West,259,0.0,0.0,98,0.00,,---,0.00,VWS V14.01,2013-10-05 10:30:00,
2013-10-05 06:31:00,59.7,59.1,30.02,West,259,0.0,0.0,98,0.00,,---,0.00,VWS V14.01,2013-10-05 10:31:00,
2013-10-05 06:36:00,59.5,58.9,30.02,West,259,0.0,0.0,98,0.00,,---,0.00,VWS V14.01,2013-10-05 10:36:00,
2013-10-05 06:41:00,59.4,58.8,30.02,West,259,0.0,0.0,98,0.00,,---,0.00,VWS V14.01,2013-10-05 10:41:00,
2013-10-05 06:46:00,59.4,58.8,30.02,West,259,0.0,0.0,98,0.00,,---,0.00,VWS V14.01,2013-10-05 10:46:00,
2013-10-05 06:51:00,59.3,58.7,30.02,West,259,0.0,0.0,98,0.00,,---,0.00,VWS V14.01,2013-10-05 10:51:00,
2013-10-05 06:56:00,59.3,58.7,30.03,West,259,0.0,0.0,98,0.00,,---,0.00,VWS V14.01,2013-10-05 10:56:00,
2013-10-05 07:00:00,59.3,58.7,30.03,West,259,0.0,0.0,98,0.00,,---,0.00,VWS V14.01,2013-10-05 11:00:00,
2013-10-05 07:01:00,59.3,58.7,30.03,West,259,0.0,0.0,98,0.00,,---,0.00,VWS V14.01,2013-10-05 11:01:00,
2013-10-05 07:06:00,59.3,58.7,30.02,West,259,0.0,0.0,98,0.00,,---,0.00,VWS V14.01,2013-10-05 11:06:00,
2013-10-05 07:11:00,59.3,58.7,30.02,West,259,0.0,0.0,98,0.00,,---,0.00,VWS V14.01,2013-10-05 11:11:00,
2013-10-05 07:16:00,59.2,58.6,30.03,West,259,0.0,0.0,98,0.00,,---,0.00,VWS V14.01,2013-10-05 11:16:00,
2013-10-05 07:21:00,59.0,58.4,30.03,West,259,0.0,0.0,98,0.00,,---,0.00,VWS V14.01,2013-10-05 11:21:00,
2013-10-05 07:26:00,59.0,58.4,30.03,West,259,0.0,0.0,98,0.00,,---,0.00,VWS V14.01,2013-10-05 11:26:00,
2013-10-05 07:30:00,59.1,58.5,30.03,West,259,0.0,0.0,98,0.00,,---,0.00,VWS V14.01,2013-10-05 11:30:00,
2013-10-05 07:31:00,59.1,58.5,30.03,West,259,0.0,0.0,98,0.00,,---,0.00,VWS V14.01,2013-10-05 11:31:00,
2013-10-05 07:36:00,59.1,58.5,30.03,West,259,0.0,0.0,98,0.00,,---,0.00,VWS V14.01,2013-10-05 11:36:00,
2013-10-05 07:41:00,59.1,58.5,30.03,West,259,0.0,0.0,98,0.00,,---,0.00,VWS V14.01,2013-10-05 11:41:00,
2013-10-05 07:46:00,59.1,58.5,30.03,West,259,0.0,0.0,98,0.00,,---,0.00,VWS V14.01,2013-10-05 11:46:00,
2013-10-05 08:00:00,59.3,58.7,30.03,West,259,0.0,0.0,98,0.00,,---,0.00,VWS V14.01,2013-10-05 12:00:00,
2013-10-05 08:27:00,60.8,60.2,30.03,West,259,0.0,0.0,98,0.00,,---,0.00,VWS V14.01,2013-10-05 12:27:00,
2013-10-05 08:30:00,59.1,58.5,30.03,West,259,0.0,0.0,98,0.00,,---,0.00,VWS V14.01,2013-10-05 12:30:00,
2013-10-05 08:32:00,61.0,60.4,30.03,West,259,0.0,0.0,98,0.00,,---,0.00,VWS V14.01,2013-10-05 12:32:00,
2013-10-05 08:37:00,61.3,60.7,30.03,West,259,0.0,0.0,98,0.00,,---,0.00,VWS V14.01,2013-10-05 12:37:00,
2013-10-05 08:42:00,61.7,61.1,30.03,West,259,0.0,0.0,98,0.00,,---,0.00,VWS V14.01,2013-10-05 12:42:00,
2013-10-05 08:47:00,61.9,61.3,30.04,West,259,0.0,0.0,98,0.00,,---,0.00,VWS V14.01,2013-10-05 12:47:00,
2013-10-05 08:52:00,62.7,62.1,30.03,West,259,0.0,0.0,98,0.00,,---,0.00,VWS V14.01,2013-10-05 12:52:00,
2013-10-05 08:57:00,63.3,62.7,30.03,West,259,0.0,0.0,98,0.00,,---,0.00,VWS V14.01,2013-10-05 12:57:00,
2013-10-05 09:00:00,63.5,62.9,30.03,West,259,0.0,0.0,98,0.00,,---,0.00,VWS V14.01,2013-10-05 13:00:00,
2013-10-05 09:02:00,63.6,63.0,30.04,West,259,0.0,0.0,98,0.00,,---,0.00,VWS V14.01,2013-10-05 13:02:00,
2013-10-05 09:07:00,64.1,63.8,30.03,West,259,0.0,0.0,99,0.00,,---,0.00,VWS V14.01,2013-10-05 13:07:00,
2013-10-05 09:12:00,64.6,64.0,30.03,West,259,0.0,0.0,98,0.00,,---,0.00,VWS V14.01,2013-10-05 13:12:00,
2013-10-05 09:17:00,65.0,64.4,30.03,West,259,0.0,0.0,98,0.00,,---,0.00,VWS V14.01,2013-10-05 13:17:00,
2013-10-05 09:22:00,65.6,65.0,30.03,West,259,0.0,0.0,98,0.00,,---,0.00,VWS V14.01,2013-10-05 13:22:00,
2013-10-05 09:27:00,66.1,65.5,30.04,West,259,0.0,0.0,98,0.00,,---,0.00,VWS V14.01,2013-10-05 13:27:00,
2013-10-05 09:30:00,61.0,60.4,30.03,West,259,0.0,0.0,98,0.00,,---,0.00,VWS V14.01,2013-10-05 13:30:00,
2013-10-05 09:32:00,66.8,65.9,30.03,West,259,0.0,0.0,97,0.00,,---,0.00,VWS V14.01,2013-10-05 13:32:00,
2013-10-05 09:37:00,67.4,65.9,30.03,West,259,0.0,0.0,95,0.00,,---,0.00,VWS V14.01,2013-10-05 13:37:00,
2013-10-05 09:42:00,68.1,66.6,30.03,West,259,0.0,0.0,95,0.00,,---,0.00,VWS V14.01,2013-10-05 13:42:00,
2013-10-05 09:47:00,68.6,66.8,30.03,West,259,0.0,0.0,94,0.00,,---,0.00,VWS V14.01,2013-10-05 13:47:00,
2013-10-05 09:52:00,69.2,67.1,30.03,West,259,0.0,0.0,93,0.00,,---,0.00,VWS V14.01,2013-10-05 13:52:00,
2013-10-05 09:57:00,70.3,67.9,30.04,West,259,0.0,0.0,92,0.00,,---,0.00,VWS V14.01,2013-10-05 13:57:00,
2013-10-05 10:00:00,63.5,62.9,30.03,West,259,0.0,0.0,98,0.00,,---,0.00,VWS V14.01,2013-10-05 14:00:00,
2013-10-05 10:02:00,71.2,68.1,30.03,West,259,0.0,0.0,90,0.00,,---,0.00,VWS V14.01,2013-10-05 14:02:00,
2013-10-05 10:07:00,71.8,68.4,30.03,West,259,0.0,0.0,89,0.00,,---,0.00,VWS V14.01,2013-10-05 14:07:00,
2013-10-05 10:12:00,72.6,68.8,30.03,West,259,0.0,0.0,88,0.00,,---,0.00,VWS V14.01,2013-10-05 14:12:00,
2013-10-05 10:17:00,73.0,68.2,30.03,West,259,0.0,1.0,85,0.00,,---,0.00,VWS V14.01,2013-10-05 14:17:00,
2013-10-05 10:22:00,73.6,68.8,30.03,West,259,0.0,1.0,85,0.00,,---,0.00,VWS V14.01,2013-10-05 14:22:00,
2013-10-05 10:27:00,74.4,68.6,30.03,West,259,1.0,1.0,82,0.00,,---,0.00,VWS V14.01,2013-10-05 14:27:00,
2013-10-05 10:30:00,66.7,65.8,30.03,West,259,0.0,0.0,97,0.00,,---,0.00,VWS V14.01,2013-10-05 14:30:00,
2013-10-05 10:32:00,74.8,68.6,30.03,West,259,2.0,3.0,81,0.00,,---,0.00,VWS V14.01,2013-10-05 14:32:00,
2013-10-05 10:37:00,75.4,68.4,30.03,West,259,0.0,3.0,79,0.00,,---,0.00,VWS V14.01,2013-10-05 14:37:00,
2013-10-05 10:42:00,75.5,68.9,30.03,West,259,0.0,3.0,80,0.00,,---,0.00,VWS V14.01,2013-10-05 14:42:00,
2013-10-05 10:47:00,75.5,68.5,30.03,West,259,0.0,3.0,79,0.00,,---,0.00,VWS V14.01,2013-10-05 14:47:00,
2013-10-05 10:52:00,76.1,68.8,30.03,West,259,0.0,3.0,78,0.00,,---,0.00,VWS V14.01,2013-10-05 14:52:00,
2013-10-05 10:57:00,76.4,68.7,30.03,West,259,0.0,3.0,77,0.00,,---,0.00,VWS V14.01,2013-10-05 14:57:00,
2013-10-05 11:00:00,71.0,67.9,30.03,West,259,0.0,0.0,90,0.00,,---,0.00,VWS V14.01,2013-10-05 15:00:00,
2013-10-05 11:02:00,77.0,69.2,30.03,West,259,0.0,2.0,77,0.00,,---,0.00,VWS V14.01,2013-10-05 15:02:00,
2013-10-05 11:07:00,77.5,70.1,30.02,West,259,0.0,2.0,78,0.00,,---,0.00,VWS V14.01,2013-10-05 15:07:00,
2013-10-05 11:12:00,78.2,70.0,30.02,West,259,0.0,2.0,76,0.00,,---,0.00,VWS V14.01,2013-10-05 15:12:00,
2013-10-05 11:17:00,78.6,70.4,30.02,West,259,0.0,2.0,76,0.00,,---,0.00,VWS V14.01,2013-10-05 15:17:00,
2013-10-05 11:22:00,78.3,70.9,30.02,West,259,0.0,2.0,78,0.00,,---,0.00,VWS V14.01,2013-10-05 15:22:00,
2013-10-05 11:27:00,78.8,70.6,30.02,West,259,0.0,2.0,76,0.00,,---,0.00,VWS V14.01,2013-10-05 15:27:00,
2013-10-05 11:30:00,74.9,68.7,30.03,West,259,0.0,2.0,81,0.00,,---,0.00,VWS V14.01,2013-10-05 15:30:00,
2013-10-05 11:32:00,79.5,70.9,30.02,West,259,0.0,0.0,75,0.00,,---,0.00,VWS V14.01,2013-10-05 15:32:00,
2013-10-05 11:37:00,79.7,70.7,30.02,West,259,0.0,2.0,74,0.00,,---,0.00,VWS V14.01,2013-10-05 15:37:00,
2013-10-05 11:42:00,80.3,71.7,30.02,West,259,0.0,2.0,75,0.00,,---,0.00,VWS V14.01,2013-10-05 15:42:00,
2013-10-05 11:47:00,79.8,71.2,30.02,West,259,1.0,2.0,75,0.00,,---,0.00,VWS V14.01,2013-10-05 15:47:00,
2013-10-05 11:52:00,80.2,71.2,30.01,West,259,0.0,2.0,74,0.00,,---,0.00,VWS V14.01,2013-10-05 15:52:00,
2013-10-05 11:57:00,80.5,69.0,30.01,West,259,0.0,2.0,68,0.00,,---,0.00,VWS V14.01,2013-10-05 15:57:00,
2013-10-05 12:00:00,76.6,68.9,30.03,West,259,0.0,3.0,77,0.00,,---,0.00,VWS V14.01,2013-10-05 16:00:00,
2013-10-05 12:02:00,81.3,70.6,30.01,West,259,0.0,0.0,70,0.00,,---,0.00,VWS V14.01,2013-10-05 16:02:00,
2013-10-05 12:07:00,81.6,70.0,30.01,West,263,0.0,3.0,68,0.00,,---,0.00,VWS V14.01,2013-10-05 16:07:00,
2013-10-05 12:12:00,81.9,71.2,30.01,West,263,0.0,3.0,70,0.00,,---,0.00,VWS V14.01,2013-10-05 16:12:00,
2013-10-05 12:17:00,82.3,70.7,30.01,West,273,0.0,4.0,68,0.00,,---,0.00,VWS V14.01,2013-10-05 16:17:00,
2013-10-05 12:22:00,82.6,71.0,30.01,West,275,0.0,4.0,68,0.00,,---,0.00,VWS V14.01,2013-10-05 16:22:00,
2013-10-05 12:27:00,82.9,69.5,30.01,WNW,288,0.0,4.0,64,0.00,,---,0.00,VWS V14.01,2013-10-05 16:27:00,
2013-10-05 12:30:00,79.3,70.7,30.02,West,259,0.0,2.0,75,0.00,,---,0.00,VWS V14.01,2013-10-05 16:30:00,
2013-10-05 12:32:00,83.1,69.7,30.01,WNW,286,2.0,2.0,64,0.00,,---,0.00,VWS V14.01,2013-10-05 16:32:00,
2013-10-05 12:37:00,83.5,68.7,30.01,North,5,2.0,4.0,61,0.00,,---,0.00,VWS V14.01,2013-10-05 16:37:00,
2013-10-05 12:42:00,83.7,68.8,30.01,North,5,0.0,4.0,61,0.00,,---,0.00,VWS V14.01,2013-10-05 16:42:00,
2013-10-05 12:47:00,84.1,67.7,30.01,NNE,32,1.0,4.0,58,0.00,,---,0.00,VWS V14.01,2013-10-05 16:47:00,
2013-10-05 12:52:00,84.4,70.4,30.00,NNE,32,0.0,4.0,63,0.00,,---,0.00,VWS V14.01,2013-10-05 16:52:00,
2013-10-05 12:57:00,84.7,68.3,30.00,NNE,32,1.0,4.0,58,0.00,,---,0.00,VWS V14.01,2013-10-05 16:57:00,
2013-10-05 13:00:00,81.1,69.6,30.01,West,259,0.0,2.0,68,0.00,,---,0.00,VWS V14.01,2013-10-05 17:00:00,
2013-10-05 13:02:00,85.1,67.7,30.00,NNE,32,1.0,2.0,56,0.00,,---,0.00,VWS V14.01,2013-10-05 17:02:00,
2013-10-05 13:07:00,85.1,68.2,30.00,NNE,32,0.0,3.0,57,0.00,,---,0.00,VWS V14.01,2013-10-05 17:07:00,
2013-10-05 13:12:00,85.1,69.2,30.00,NNE,15,0.0,3.0,59,0.00,,---,0.00,VWS V14.01,2013-10-05 17:12:00,
2013-10-05 13:17:00,85.1,68.2,30.00,NNE,15,1.0,3.0,57,0.00,,---,0.00,VWS V14.01,2013-10-05 17:17:00,
2013-10-05 13:22:00,85.5,69.1,29.99,NNE,15,0.0,3.0,58,0.00,,---,0.00,VWS V14.01,2013-10-05 17:22:00,
2013-10-05 13:27:00,85.6,67.6,29.99,NNE,15,0.0,3.0,55,0.00,,---,0.00,VWS V14.01,2013-10-05 17:27:00,
2013-10-05 13:30:00,83.0,69.1,30.01,WNW,286,0.0,5.0,63,0.00,,---,0.00,VWS V14.01,2013-10-05 17:30:00,
2013-10-05 13:32:00,85.5,67.5,29.98,NNE,18,0.0,0.0,55,0.00,,---,0.00,VWS V14.01,2013-10-05 17:32:00,
2013-10-05 13:37:00,85.1,68.2,29.98,NNE,14,0.0,3.0,57,0.00,,---,0.00,VWS V14.01,2013-10-05 17:37:00,
2013-10-05 13:42:00,85.3,68.9,29.98,NW,304,0.0,3.0,58,0.00,,---,0.00,VWS V14.01,2013-10-05 17:42:00,
2013-10-05 13:47:00,85.6,70.1,29.98,NW,304,0.0,3.0,60,0.00,,---,0.00,VWS V14.01,2013-10-05 17:47:00,
2013-10-05 13:52:00,85.4,69.0,29.98,NW,306,4.0,4.0,58,0.00,,---,0.00,VWS V14.01,2013-10-05 17:52:00,
2013-10-05 13:57:00,84.5,70.1,29.97,NW,304,0.0,4.0,62,0.00,,---,0.00,VWS V14.01,2013-10-05 17:57:00,
2013-10-05 14:00:00,85.0,67.6,30.00,NNE,32,2.0,4.0,56,0.00,,---,0.00,VWS V14.01,2013-10-05 18:00:00,
2013-10-05 14:02:00,85.0,68.6,29.97,West,281,3.0,4.0,58,0.00,,---,0.00,VWS V14.01,2013-10-05 18:02:00,
2013-10-05 14:07:00,85.1,69.2,29.97,West,279,1.0,4.0,59,0.00,,---,0.00,VWS V14.01,2013-10-05 18:07:00,
2013-10-05 14:12:00,85.6,68.6,29.97,NE,52,1.0,4.0,57,0.00,,---,0.00,VWS V14.01,2013-10-05 18:12:00,
2013-10-05 14:17:00,86.0,67.4,29.97,ENE,61,0.0,4.0,54,0.00,,---,0.00,VWS V14.01,2013-10-05 18:17:00,
2013-10-05 14:22:00,85.6,67.6,29.97,West,274,2.0,4.0,55,0.00,,---,0.00,VWS V14.01,2013-10-05 18:22:00,
2013-10-05 14:27:00,85.7,67.2,29.97,WNW,284,1.0,5.0,54,0.00,,---,0.00,VWS V14.01,2013-10-05 18:27:00,
2013-10-05 14:30:00,85.9,68.4,29.98,NNE,18,0.0,3.0,56,0.00,,---,0.00,VWS V14.01,2013-10-05 18:30:00,
2013-10-05 14:32:00,85.8,67.2,29.97,WNW,285,0.0,2.0,54,0.00,,---,0.00,VWS V14.01,2013-10-05 18:32:00,
2013-10-05 14:37:00,84.3,67.9,29.97,WNW,285,0.0,2.0,58,0.00,,---,0.00,VWS V14.01,2013-10-05 18:37:00,
2013-10-05 14:42:00,83.3,67.5,29.96,WNW,285,0.0,2.0,59,0.00,,---,0.00,VWS V14.01,2013-10-05 18:42:00,
2013-10-05 14:47:00,84.3,67.9,29.96,WNW,285,0.0,2.0,58,0.00,,---,0.00,VWS V14.01,2013-10-05 18:47:00,
2013-10-05 14:52:00,85.2,68.8,29.96,WNW,290,0.0,3.0,58,0.00,,---,0.00,VWS V14.01,2013-10-05 18:52:00,
2013-10-05 14:57:00,85.7,70.2,29.96,WNW,300,0.0,3.0,60,0.00,,---,0.00,VWS V14.01,2013-10-05 18:57:00,
2013-10-05 15:00:00,84.9,69.0,29.97,ESE,103,0.0,4.0,59,0.00,,---,0.00,VWS V14.01,2013-10-05 19:00:00,
2013-10-05 15:02:00,85.7,68.2,29.96,WNW,285,3.0,4.0,56,0.00,,---,0.00,VWS V14.01,2013-10-05 19:02:00,
2013-10-05 15:07:00,86.1,69.6,29.96,West,277,2.0,4.0,58,0.00,,---,0.00,VWS V14.01,2013-10-05 19:07:00,
2013-10-05 15:12:00,86.4,68.3,29.96,West,269,0.0,5.0,55,0.00,,---,0.00,VWS V14.01,2013-10-05 19:12:00,
2013-10-05 15:17:00,86.5,70.0,29.96,West,280,0.0,5.0,58,0.00,,---,0.00,VWS V14.01,2013-10-05 19:17:00,
2013-10-05 15:22:00,86.4,69.4,29.96,NNW,341,1.0,5.0,57,0.00,,---,0.00,VWS V14.01,2013-10-05 19:22:00,
2013-10-05 15:27:00,85.8,68.8,29.96,WNW,297,0.0,5.0,57,0.00,,---,0.00,VWS V14.01,2013-10-05 19:27:00,
2013-10-05 15:30:00,86.1,68.6,29.97,WNW,285,0.0,5.0,56,0.00,,---,0.00,VWS V14.01,2013-10-05 19:30:00,
2013-10-05 15:32:00,85.8,68.8,29.96,WNW,297,1.0,1.0,57,0.00,,---,0.00,VWS V14.01,2013-10-05 19:32:00,
2013-10-05 15:37:00,85.5,68.0,29.96,NNE,17,0.0,3.0,56,0.00,,---,0.00,VWS V14.01,2013-10-05 19:37:00,
2013-10-05 15:42:00,85.1,69.2,29.96,NNE,16,0.0,3.0,59,0.00,,---,0.00,VWS V14.01,2013-10-05 19:42:00,
2013-10-05 15:47:00,84.6,69.2,29.96,NNE,13,0.0,3.0,60,0.00,,---,0.00,VWS V14.01,2013-10-05 19:47:00,
2013-10-05 15:52:00,84.9,70.0,29.95,NNE,13,0.0,3.0,61,0.00,,---,0.00,VWS V14.01,2013-10-05 19:52:00,
2013-10-05 15:57:00,85.1,69.7,29.95,NNE,13,0.0,3.0,60,0.00,,---,0.00,VWS V14.01,2013-10-05 19:57:00,
2013-10-05 16:00:00,85.6,69.1,29.96,WNW,300,0.0,3.0,58,0.00,,---,0.00,VWS V14.01,2013-10-05 20:00:00,
2013-10-05 16:02:00,84.7,70.7,29.95,NNE,13,0.0,0.0,63,0.00,,---,0.00,VWS V14.01,2013-10-05 20:02:00,
2013-10-05 16:07:00,85.5,69.1,29.95,West,265,4.0,5.0,58,0.00,,---,0.00,VWS V14.01,2013-10-05 20:07:00,
2013-10-05 16:12:00,85.6,69.1,29.95,West,261,0.0,5.0,58,0.00,,---,0.00,VWS V14.01,2013-10-05 20:12:00,
2013-10-05 16:17:00,85.6,70.1,29.95,West,261,0.0,5.0,60,0.00,,---,0.00,VWS V14.01,2013-10-05 20:17:00,
2013-10-05 16:22:00,85.0,68.6,29.95,West,263,0.0,5.0,58,0.00,,---,0.00,VWS V14.01,2013-10-05 20:22:00,
2013-10-05 16:27:00,84.7,70.7,29.95,West,263,0.0,5.0,63,0.00,,---,0.00,VWS V14.01,2013-10-05 20:27:00,
2013-10-05 16:30:00,85.9,69.4,29.96,WNW,297,0.0,5.0,58,0.00,,---,0.00,VWS V14.01,2013-10-05 20:30:00,
2013-10-05 16:32:00,84.5,70.1,29.95,West,263,0.0,0.0,62,0.00,,---,0.00,VWS V14.01,2013-10-05 20:32:00,
2013-10-05 16:37:00,84.0,70.1,29.95,West,263,0.0,1.0,63,0.00,,---,0.00,VWS V14.01,2013-10-05 20:37:00,
2013-10-05 16:42:00,83.9,71.3,29.94,West,263,0.0,1.0,66,0.00,,---,0.00,VWS V14.01,2013-10-05 20:42:00,
2013-10-05 16:47:00,83.9,69.5,29.95,West,263,0.0,1.0,62,0.00,,---,0.00,VWS V14.01,2013-10-05 20:47:00,
2013-10-05 16:52:00,84.6,70.2,29.94,West,263,0.0,2.0,62,0.00,,---,0.00,VWS V14.01,2013-10-05 20:52:00,
2013-10-05 16:57:00,83.9,70.0,29.94,West,263,0.0,2.0,63,0.00,,---,0.00,VWS V14.01,2013-10-05 20:57:00,
2013-10-05 17:00:00,84.7,70.7,29.95,NNE,13,0.0,3.0,63,0.00,,---,0.00,VWS V14.01,2013-10-05 21:00:00,
2013-10-05 17:02:00,83.8,69.4,29.94,West,263,0.0,0.0,62,0.00,,---,0.00,VWS V14.01,2013-10-05 21:02:00,
2013-10-05 17:07:00,84.3,68.9,29.94,West,263,0.0,2.0,60,0.00,,---,0.00,VWS V14.01,2013-10-05 21:07:00,
2013-10-05 17:12:00,84.0,69.1,29.94,West,263,0.0,2.0,61,0.00,,---,0.00,VWS V14.01,2013-10-05 21:12:00,
2013-10-05 17:17:00,83.4,69.0,29.94,West,263,0.0,2.0,62,0.00,,---,0.00,VWS V14.01,2013-10-05 21:17:00,
2013-10-05 17:22:00,83.5,70.1,29.94,West,263,0.0,2.0,64,0.00,,---,0.00,VWS V14.01,2013-10-05 21:22:00,
2013-10-05 17:27:00,82.9,69.5,29.94,West,263,0.0,2.0,64,0.00,,---,0.00,VWS V14.01,2013-10-05 21:27:00,
2013-10-05 17:30:00,85.0,70.1,29.95,West,263,0.0,5.0,61,0.00,,---,0.00,VWS V14.01,2013-10-05 21:30:00,
2013-10-05 17:32:00,82.8,69.4,29.94,West,263,0.0,1.0,64,0.00,,---,0.00,VWS V14.01,2013-10-05 21:32:00,
2013-10-05 17:37:00,82.6,70.1,29.94,West,263,0.0,1.0,66,0.00,,---,0.00,VWS V14.01,2013-10-05 21:37:00,
2013-10-05 17:42:00,82.3,69.8,29.94,West,263,0.0,1.0,66,0.00,,---,0.00,VWS V14.01,2013-10-05 21:42:00,
2013-10-05 17:47:00,81.7,71.0,29.94,West,263,0.0,1.0,70,0.00,,---,0.00,VWS V14.01,2013-10-05 21:47:00,
2013-10-05 17:52:00,80.6,70.3,29.94,West,263,0.0,1.0,71,0.00,,---,0.00,VWS V14.01,2013-10-05 21:52:00,
2013-10-05 17:57:00,79.6,70.6,29.94,West,263,0.0,1.0,74,0.00,,---,0.00,VWS V14.01,2013-10-05 21:57:00,
2013-10-05 18:00:00,83.7,69.8,29.94,West,263,0.0,2.0,63,0.00,,---,0.00,VWS V14.01,2013-10-05 22:00:00,
2013-10-05 18:02:00,79.1,71.3,29.94,West,263,0.0,0.0,77,0.00,,---,0.00,VWS V14.01,2013-10-05 22:02:00,
2013-10-05 18:07:00,78.5,71.1,29.94,West,263,0.0,0.0,78,0.00,,---,0.00,VWS V14.01,2013-10-05 22:07:00,
2013-10-05 18:12:00,77.8,70.8,29.94,West,263,0.0,0.0,79,0.00,,---,0.00,VWS V14.01,2013-10-05 22:12:00,
2013-10-05 18:17:00,77.4,70.8,29.94,West,263,0.0,0.0,80,0.00,,---,0.00,VWS V14.01,2013-10-05 22:17:00,
2013-10-05 18:22:00,76.9,70.6,29.94,West,263,0.0,0.0,81,0.00,,---,0.00,VWS V14.01,2013-10-05 22:22:00,
2013-10-05 18:27:00,76.3,70.4,29.94,West,263,0.0,0.0,82,0.00,,---,0.00,VWS V14.01,2013-10-05 22:27:00,
2013-10-05 18:30:00,82.7,70.2,29.94,West,263,0.0,2.0,66,0.00,,---,0.00,VWS V14.01,2013-10-05 22:30:00,
2013-10-05 18:32:00,75.8,70.3,29.94,West,263,0.0,0.0,83,0.00,,---,0.00,VWS V14.01,2013-10-05 22:32:00,
2013-10-05 18:37:00,75.3,70.1,29.94,West,263,0.0,0.0,84,0.00,,---,0.00,VWS V14.01,2013-10-05 22:37:00,
2013-10-05 18:42:00,74.9,70.4,29.94,West,263,0.0,0.0,86,0.00,,---,0.00,VWS V14.01,2013-10-05 22:42:00,
2013-10-05 18:47:00,74.5,70.4,29.94,West,263,0.0,0.0,87,0.00,,---,0.00,VWS V14.01,2013-10-05 22:47:00,
2013-10-05 18:52:00,74.2,70.4,29.94,West,263,0.0,0.0,88,0.00,,---,0.00,VWS V14.01,2013-10-05 22:52:00,
2013-10-05 18:57:00,73.8,70.4,29.94,West,263,0.0,0.0,89,0.00,,---,0.00,VWS V14.01,2013-10-05 22:57:00,
2013-10-05 19:00:00,79.4,71.2,29.94,West,263,0.0,1.0,76,0.00,,---,0.00,VWS V14.01,2013-10-05 23:00:00,
2013-10-05 19:02:00,73.3,69.9,29.94,West,263,0.0,0.0,89,0.00,,---,0.00,VWS V14.01,2013-10-05 23:02:00,
2013-10-05 19:07:00,73.0,69.9,29.94,West,263,0.0,0.0,90,0.00,,---,0.00,VWS V14.01,2013-10-05 23:07:00,
2013-10-05 19:12:00,72.6,69.8,29.95,West,263,0.0,0.0,91,0.00,,---,0.00,VWS V14.01,2013-10-05 23:12:00,
2013-10-05 19:17:00,72.3,69.5,29.95,West,263,0.0,0.0,91,0.00,,---,0.00,VWS V14.01,2013-10-05 23:17:00,
2013-10-05 19:22:00,72.0,69.2,29.95,West,263,0.0,0.0,91,0.00,,---,0.00,VWS V14.01,2013-10-05 23:22:00,
2013-10-05 19:27:00,71.7,68.9,29.95,West,263,0.0,0.0,91,0.00,,---,0.00,VWS V14.01,2013-10-05 23:27:00,
2013-10-05 19:30:00,76.0,70.5,29.94,West,263,0.0,0.0,83,0.00,,---,0.00,VWS V14.01,2013-10-05 23:30:00,
2013-10-05 19:32:00,71.5,69.1,29.95,West,263,0.0,0.0,92,0.00,,---,0.00,VWS V14.01,2013-10-05 23:32:00,
2013-10-05 19:37:00,71.2,68.8,29.95,West,263,0.0,0.0,92,0.00,,---,0.00,VWS V14.01,2013-10-05 23:37:00,
2013-10-05 19:42:00,70.9,68.5,29.95,West,263,0.0,0.0,92,0.00,,---,0.00,VWS V14.01,2013-10-05 23:42:00,
2013-10-05 19:47:00,70.7,68.6,29.95,West,263,0.0,0.0,93,0.00,,---,0.00,VWS V14.01,2013-10-05 23:47:00,
2013-10-05 19:52:00,70.5,68.4,29.95,West,263,0.0,0.0,93,0.00,,---,0.00,VWS V14.01,2013-10-05 23:52:00,
2013-10-05 19:57:00,70.3,68.2,29.95,West,263,0.0,0.0,93,0.00,,---,0.00,VWS V14.01,2013-10-05 23:57:00,
2013-10-05 20:00:00,73.5,70.1,29.94,West,263,0.0,0.0,89,0.00,,---,0.00,VWS V14.01,2013-10-06 00:00:00,
2013-10-05 20:02:00,70.1,68.0,29.95,West,263,0.0,0.0,93,0.00,,---,0.00,VWS V14.01,2013-10-06 00:02:00,
2013-10-05 20:07:00,69.8,68.0,29.96,West,263,0.0,0.0,94,0.00,,---,0.00,VWS V14.01,2013-10-06 00:07:00,
2013-10-05 20:12:00,69.6,67.8,29.96,West,263,0.0,0.0,94,0.00,,---,0.00,VWS V14.01,2013-10-06 00:12:00,
2013-10-05 20:17:00,69.4,67.6,29.96,West,263,0.0,0.0,94,0.00,,---,0.00,VWS V14.01,2013-10-06 00:17:00,
2013-10-05 20:22:00,69.3,67.5,29.96,West,263,0.0,0.0,94,0.00,,---,0.00,VWS V14.01,2013-10-06 00:22:00,
2013-10-05 20:27:00,69.2,67.4,29.96,West,263,0.0,0.0,94,0.00,,---,0.00,VWS V14.01,2013-10-06 00:27:00,
2013-10-05 20:30:00,71.6,69.2,29.95,West,263,0.0,0.0,92,0.00,,---,0.00,VWS V14.01,2013-10-06 00:30:00,
2013-10-05 20:32:00,69.0,67.5,29.96,West,263,0.0,0.0,95,0.00,,---,0.00,VWS V14.01,2013-10-06 00:32:00,
2013-10-05 20:37:00,68.8,67.3,29.96,West,263,0.0,0.0,95,0.00,,---,0.00,VWS V14.01,2013-10-06 00:37:00,
2013-10-05 20:42:00,68.7,67.2,29.97,West,263,0.0,0.0,95,0.00,,---,0.00,VWS V14.01,2013-10-06 00:42:00,
2013-10-05 20:47:00,68.5,67.0,29.97,West,263,0.0,0.0,95,0.00,,---,0.00,VWS V14.01,2013-10-06 00:47:00,
2013-10-05 20:52:00,68.3,66.8,29.97,West,263,0.0,0.0,95,0.00,,---,0.00,VWS V14.01,2013-10-06 00:52:00,
2013-10-05 20:57:00,68.2,66.7,29.97,West,263,0.0,0.0,95,0.00,,---,0.00,VWS V14.01,2013-10-06 00:57:00,
2013-10-05 21:00:00,70.2,68.1,29.95,West,263,0.0,0.0,93,0.00,,---,0.00,VWS V14.01,2013-10-06 01:00:00,
2013-10-05 21:02:00,68.1,66.6,29.98,West,263,0.0,0.0,95,0.00,,---,0.00,VWS V14.01,2013-10-06 01:02:00,
2013-10-05 21:07:00,68.0,66.5,29.98,West,263,0.0,0.0,95,0.00,,---,0.00,VWS V14.01,2013-10-06 01:07:00,
2013-10-05 21:12:00,67.8,66.3,29.98,West,263,0.0,0.0,95,0.00,,---,0.00,VWS V14.01,2013-10-06 01:12:00,
2013-10-05 21:17:00,67.7,66.5,29.98,West,263,0.0,0.0,96,0.00,,---,0.00,VWS V14.01,2013-10-06 01:17:00,
2013-10-05 21:22:00,67.5,66.0,29.98,West,263,0.0,0.0,95,0.00,,---,0.00,VWS V14.01,2013-10-06 01:22:00,
2013-10-05 21:27:00,67.5,66.3,29.98,West,263,0.0,0.0,96,0.00,,---,0.00,VWS V14.01,2013-10-06 01:27:00,
2013-10-05 21:30:00,69.1,67.3,29.96,West,263,0.0,0.0,94,0.00,,---,0.00,VWS V14.01,2013-10-06 01:30:00,
2013-10-05 21:32:00,67.3,66.1,29.98,West,263,0.0,0.0,96,0.00,,---,0.00,VWS V14.01,2013-10-06 01:32:00,
2013-10-05 21:37:00,67.2,66.0,29.98,West,263,0.0,0.0,96,0.00,,---,0.00,VWS V14.01,2013-10-06 01:37:00,
2013-10-05 21:42:00,67.1,65.9,29.98,West,263,0.0,0.0,96,0.00,,---,0.00,VWS V14.01,2013-10-06 01:42:00,
2013-10-05 21:47:00,67.0,65.8,29.98,West,263,0.0,0.0,96,0.00,,---,0.00,VWS V14.01,2013-10-06 01:47:00,
2013-10-05 21:52:00,66.9,65.7,29.98,West,263,0.0,0.0,96,0.00,,---,0.00,VWS V14.01,2013-10-06 01:52:00,
2013-10-05 21:57:00,66.8,65.6,29.98,West,263,0.0,0.0,96,0.00,,---,0.00,VWS V14.01,2013-10-06 01:57:00,
2013-10-05 22:00:00,68.1,66.6,29.97,West,263,0.0,0.0,95,0.00,,---,0.00,VWS V14.01,2013-10-06 02:00:00,
2013-10-05 22:02:00,66.7,65.5,29.98,West,263,0.0,0.0,96,0.00,,---,0.00,VWS V14.01,2013-10-06 02:02:00,
2013-10-05 22:07:00,66.6,65.4,29.98,West,263,0.0,0.0,96,0.00,,---,0.00,VWS V14.01,2013-10-06 02:07:00,
2013-10-05 22:12:00,66.4,65.2,29.98,West,263,0.0,0.0,96,0.00,,---,0.00,VWS V14.01,2013-10-06 02:12:00,
2013-10-05 22:17:00,66.4,65.2,29.98,West,263,0.0,0.0,96,0.00,,---,0.00,VWS V14.01,2013-10-06 02:17:00,
2013-10-05 22:22:00,66.3,65.1,29.98,West,263,0.0,0.0,96,0.00,,---,0.00,VWS V14.01,2013-10-06 02:22:00,
2013-10-05 22:27:00,66.1,64.9,29.98,West,263,0.0,0.0,96,0.00,,---,0.00,VWS V14.01,2013-10-06 02:27:00,
2013-10-05 22:30:00,67.4,66.2,29.98,West,263,0.0,0.0,96,0.00,,---,0.00,VWS V14.01,2013-10-06 02:30:00,
2013-10-05 22:32:00,66.1,64.9,29.98,West,263,0.0,0.0,96,0.00,,---,0.00,VWS V14.01,2013-10-06 02:32:00,
2013-10-05 22:37:00,65.9,64.7,29.98,West,263,0.0,0.0,96,0.00,,---,0.00,VWS V14.01,2013-10-06 02:37:00,
2013-10-05 22:42:00,65.8,64.9,29.98,West,263,0.0,0.0,97,0.00,,---,0.00,VWS V14.01,2013-10-06 02:42:00,
2013-10-05 22:48:00,65.8,64.9,29.99,West,263,0.0,0.0,97,0.00,,---,0.00,VWS V14.01,2013-10-06 02:48:00,
2013-10-05 22:52:00,65.8,64.9,29.99,West,263,0.0,0.0,97,0.00,,---,0.00,VWS V14.01,2013-10-06 02:52:00,
2013-10-05 22:57:00,65.7,64.8,29.99,West,263,0.0,0.0,97,0.00,,---,0.00,VWS V14.01,2013-10-06 02:57:00,
2013-10-05 23:00:00,66.7,65.5,29.98,West,263,0.0,0.0,96,0.00,,---,0.00,VWS V14.01,2013-10-06 03:00:00,
2013-10-05 23:02:00,65.5,64.6,29.99,West,263,0.0,0.0,97,0.00,,---,0.00,VWS V14.01,2013-10-06 03:02:00,
2013-10-05 23:08:00,65.4,64.5,29.99,West,263,0.0,0.0,97,0.00,,---,0.00,VWS V14.01,2013-10-06 03:08:00,
2013-10-05 23:13:00,65.3,64.4,29.99,West,263,0.0,0.0,97,0.00,,---,0.00,VWS V14.01,2013-10-06 03:13:00,
2013-10-05 23:18:00,65.2,64.3,29.99,West,263,0.0,0.0,97,0.00,,---,0.00,VWS V14.01,2013-10-06 03:18:00,
2013-10-05 23:23:00,65.1,64.2,29.99,West,263,0.0,0.0,97,0.00,,---,0.00,VWS V14.01,2013-10-06 03:23:00,
2013-10-05 23:28:00,65.0,64.1,29.99,West,263,0.0,0.0,97,0.00,,---,0.00,VWS V14.01,2013-10-06 03:28:00,
2013-10-05 23:30:00,66.1,64.9,29.98,West,263,0.0,0.0,96,0.00,,---,0.00,VWS V14.01,2013-10-06 03:30:00,
2013-10-05 23:33:00,64.9,64.0,29.98,West,263,0.0,0.0,97,0.00,,---,0.00,VWS V14.01,2013-10-06 03:33:00,
2013-10-05 23:38:00,64.9,64.0,29.98,West,263,0.0,0.0,97,0.00,,---,0.00,VWS V14.01,2013-10-06 03:38:00,
2013-10-05 23:43:00,64.8,63.9,29.98,West,263,0.0,0.0,97,0.00,,---,0.00,VWS V14.01,2013-10-06 03:43:00,
2013-10-05 23:48:00,64.7,63.8,29.98,West,263,0.0,0.0,97,0.00,,---,0.00,VWS V14.01,2013-10-06 03:48:00,
2013-10-05 23:53:00,64.7,63.8,29.98,West,263,0.0,0.0,97,0.00,,---,0.00,VWS V14.01,2013-10-06 03:53:00,
2013-10-05 23:58:00,64.7,63.8,29.98,West,263,0.0,0.0,97,0.00,,---,0.00,VWS V14.01,2013-10-06 03:58:00,